Regional Weather Roundup
Issued by NWS Midland/Odessa, TX

Home | Current Version | Previous Version | Text Only | Print | Product List | Glossary On
Versions: 1 2 3 4 5 6 7 8 9 10 11 12 13 14 15 16 17 18 19 20 21 22 23 24 25 26 27 28 29 30 31 32 33 34 35 36 37 38 39 40 41 42 43 44 45 46 47 48 49 50
000
ASUS44 KMAF 110410
RWRMAF
MIDLAND AREA WEATHER ROUNDUP
NATIONAL WEATHER SERVICE MIDLAND TX
1000 PM CST SUN DEC 10 2017

...IN SOUTHWEST TEXAS AND SOUTHEAST NEW MEXICO...

CITY           SKY/WX    TMP DP  RH WIND       PRES   REMARKS
ALPINE         CLOUDY    42  25  50 SW8       30.49F WCI  37
ANDREWS        FAIR      44  19  38 SW6       30.40S
ARTESIA        CLOUDY    37  16  41 W13       30.40R WCI  29
BIG SPRING     CLEAR     40  26  58 SE7       30.41S WCI  35
CARLSBAD       CLOUDY    34  29  82 NW5       30.38R WCI  30
DRYDEN           N/A     43  32  65 W7        30.41R WCI  39
FORT STOCKTON  CLOUDY    43  30  60 SW14      30.41S WCI  36
GUAD PASS      CLOUDY    42  21  43 SW12      30.44F WCI  36
HOBBS          CLEAR     34  14  44 W9        30.40R WCI  26
LAMESA         FAIR      43  19  39 W8        30.39S WCI  38
MARFA          CLOUDY    32  27  81 NE6       30.46F WCI  26
MIDLAND AIRPK  CLOUDY    44  26  47 CALM      30.40S
MIDLAND INTL   CLOUDY    40  25  55 CALM      30.39F
ODESSA           N/A     42  24  49 CALM      30.40S
PECOS          CLOUDY    40  33  75 W6        30.42S WCI  36
PRESIDIO       FAIR      44  37  76 N7        30.47R
SEMINOLE       CLEAR     39  19  44 SW8       30.40S WCI  34
SNYDER         CLEAR     48  18  30 SW7       30.37S
WINK           CLOUDY    35  29  78 W3        30.40R
$$
...OTHER STATIONS IN TEXAS...

CITY           SKY/WX    TMP DP  RH WIND       PRES   REMARKS
ABILENE        CLEAR     43  18  36 S8        30.35S WCI  38
AMARILLO       CLOUDY    43  10  26 SW7       30.35F WCI  39
AUSTIN         CLEAR     46  35  65 SW5       30.37S
BROWNSVILLE    PTCLDY    52  49  89 N5        30.41S
CORPUS CHRISTI PTCLDY    48  43  82 S3        30.40F
DALLAS FTW     CLEAR     52  22  30 SW8       30.27F
DEL RIO        CLEAR     45  38  76 CALM      30.41R
EL PASO        MOCLDY    45  29  53 CALM      30.43R
HOUSTON INT    PTCLDY    50  37  61 SW6       30.37F
LUBBOCK        CLOUDY    41   6  23 SW10      30.36R WCI  35
SAN ANGELO     CLEAR     39  26  59 SW8       30.38S WCI  33
SAN ANTONIO    PTCLDY    44  36  73 NW6       30.39S
WACO           CLEAR     40  30  67 SW8       30.33S WCI  34
WICHITA FALLS  CLEAR     38  19  46 W7        30.19F WCI  33
$$
...OTHER LOCATIONS IN NEW MEXICO...

CITY           SKY/WX    TMP DP  RH WIND       PRES   REMARKS
ALAMOGORDO     CLOUDY    36  10  35 NE8       30.44S WCI  29
ALBUQUERQUE    CLOUDY    39   3  22 CALM      30.46R
CANNON AFB     CLOUDY    36  10  34 NW7       30.39S WCI  30
CLOVIS         CLOUDY    32  13  45 W9        30.38S WCI  24
HOLLOMAN AFB   CLOUDY    33  11  38 NE7       30.45F WCI  27
ROSWELL        CLOUDY    37  13  37 CALM      30.38R
RUIDOSO        CLOUDY    37   1  22 SW9       30.48S WCI  31
SANTA FE       CLOUDY    30   4  33 N5        30.45S WCI  25
TRUTH OR CONSE CLEAR     37   5  26 NW8       30.44R WCI  31
TUCUMCARI      CLOUDY    32   6  33 SW7       30.35S WCI  26
$$



USA.gov is the U.S. government's official web portal to all federal, state and local government web resources and services.